Starlink 32635

operational
NORAD ID: 62155 Int'l Des: 2024-224 Owner: SPXS Country: US Constellation: starlink
LEOCIRCULAR

Starlink 32635について

説明を読み込み中...

リアルタイム位置

3D地球を読み込み中...

次回通過

高度履歴

Altitude vs Time

uPlot chart will show altitude changes over time

軌道要素

1 62155U 24224S 25304.36365117 .00031632 00000-0 11530-2 0 9996
2 62155 43.0020 176.0498 0002084 274.6894 85.3719 15.27610941 52454
Epoch: Oct 31, 2025 • Age: 16 hours

現在のステータス

高度 485.8 km
速度 7.62 km/s
衛星直下点 -17.88°S, 107.15°E
打ち上げ日 Nov 30, 2024
運用期間 0.9 years
タイプ internet

技術仕様

分類 Payload
質量 730.00 kg
乾燥質量 700.00 kg
総質量 730.00 kg
長さ 0.30 m
直径 4.10 m
スパン 29.00 m
形状 Box + pan
製造者 SPXS
バスタイプ Starlink V2M
フェーズステータス In Orbit
所有者/国 SPXS/US

大規模コンステレーション

Loading constellations...